sat.trackr.live / text

‹ back to catalog

STARLINK-33843

NORAD 63507 · 2025-071Q

PAYLOAD ACTIVE UNKNOWN

§ Identity

Operator
Country
US
Launch date
2025-04-07
Launch site
AFWTR
Launch vehicle
Mass (kg)
RCS (m²)

Purposes: comms

External: N2YO · Heavens-Above · Gunter

§ Orbital elements

Epoch: 2026-05-25T00:03:15.268320Z

Period
94.10 min
Inclination
53.1585°
Eccentricity
0.0001210
Mean motion
15.30206072 rev/d
Perigee alt
474.4 km
Apogee alt
476.0 km
Semi-major
6,853.3 km
B*
4.5755e-4
RAAN
145.4233°
Arg perigee
90.8071°
Mean anomaly
269.3068°
Rev number
6,443

§ Raw data

STARLINK-338431 63507U 25071Q   26145.00226005  .00013219  00000+0  45755-3 0  99932 63507  53.1585 145.4233 0001210  90.8071 269.3068 15.30206072 64438

JSON: /api/v1/satellites/63507 · /tle

For live sub-satellite position, see the globe view (requires WebGL).

§ Visibility from observer

Set your observer location to see the next 7 days of passes ≥ 10°. The values pass through the URL so the page stays shareable.

No JS? Fill the form by hand. The geolocation button needs JavaScript.